Location: *
(38.9800°N, 16.0500°E)
Time: 18:41:13
(UTC+00:00)

Cosmos 2297 Rocket - Pass Details

Date: 07 April 2020
Orbit: 841 x 842 km, 71.0° (Epoch: 06 June)

Event Time Altitude Azimuth Distance (km) Brightness Sun altitude
Exits shadow 02:33:59 32° 292° (WNW) 1,416 3.0 -22.2°
Maximum altitude 02:34:25 32° 301° (WNW) 1,406 3.1 -22.1°
Drops below altitude 10° 02:39:27 10° 4° (N) 2,467 5.0 -21.2°
Sets 02:42:10 0° 15° (NNE) 3,405 6.0 -20.8°
